User: anonymous   Login
Location: Unspecified
(0.0000°N, 0.0000°E)
Time: 02:04:25
(UTC+02:00)
Language:

Cosmos 540 Rocket - Orbit

View from above orbital plane
View from above orbital plane
View from above satellite
View from above satellite

Ground track
Ground track

The orbit data is extracted from the following two-line orbital elements,

1 06324U 72104B   16149.43144390  .00000126  00000-0  45244-4 0  9990
2 06324  74.0767  98.9602 0009573 330.8907  29.1715 14.43305180280066
Epoch (UTC): 28 May 2016 10:21:16
Eccentricity: 0.0009573
inclination: 74.0767°
perigee height: 741 km
apogee height: 754 km
right ascension of ascending node: 98.9602°
argument of perigee: 330.8907°
revolutions per day: 14.43305180
mean anomaly at epoch: 29.1715°
orbit number at epoch: 28006

The dashed part of the orbit path shows where the satellite is in the earth's shadow,  

DLR